Regional Weather Roundup
Issued by NWS

Home | Current Version | Previous Version | Graphics & Text | Print | Product List | Glossary On
Versions: 1 2 3 4 5 6 7 8 9 10 11 12 13 14 15 16 17 18 19 20 21 22 23 24 25 26 27 28 29 30 31 32 33 34 35 36 37 38 39 40 41 42 43 44 45 46 47 48 49 50
000
ASUS43 KLSX 202107
RWRMO

WEATHER SUMMARY FOR MISSOURI
NATIONAL WEATHER SERVICE SPRINGFIELD MO
300 PM CST TUE FEB 20 2018

NOTE: "FAIR" INDICATES FEW OR NO CLOUDS BELOW 12,000 FEET WITH NO
       SIGNIFICANT WEATHER AND/OR OBSTRUCTIONS TO VISIBILITY.
       CURRENT SKY AND/OR WEATHER CONDITIONS ARE NOT AVAILABLE FOR
       CHILLICOTHE AND FARMINGTON.

MOZ001>031-035>038-043-044-053-054-202200-
...NORTHERN AND WESTERN MISSOURI...

CITY           SKY/WX    TMP DP  RH WIND       PRES   REMARKS
KANSAS CTY INT CLOUDY    25  21  85 NW12      30.11R WCI  14
KANSAS C DTWN  CLOUDY    27  20  75 NW13      30.13R WCI  16
LEE`S SUMMIT   CLOUDY    25  23  92 NW12      30.11R WCI  14
ST JOSEPH      CLOUDY    23  19  85 NW16      30.15R WCI  10
CHILLICOTHE      N/A     28  23  81 NW10G18   30.10R WCI  19
KIRKSVILLE     CLOUDY    30  28  92 NW14G22   30.04R WCI  19

$$
MOZ066>068-077>081-088>096-101>105-202200-
...SOUTHWEST MISSOURI...

CITY           SKY/WX    TMP DP  RH WIND       PRES   REMARKS
SPRINGFIELD    RAIN      39  38  96 N12       29.99R FOG
JOPLIN         RAIN      34  34 100 N14       30.04R FOG     WCI  25
BRANSON        CLOUDY    68  59  73 S10G17    29.92F

$$
MOZ032>034-039>042-045>050-055>058-069>072-202200-
...CENTRAL MISSOURI...

CITY           SKY/WX    TMP DP  RH WIND       PRES   REMARKS
COLUMBIA       RAIN      36  35  96 W9        30.05R FOG     WCI  29
JEFFERSON CITY RAIN      38  35  89 NW14      30.05R FOG     WCI  30
ROLLA          LGT RAIN  43  42  97 NW10      29.99R
SEDALIA        RAIN      34  34 100 N12       30.06R FOG     WCI  25
WHITEMAN AFB   FRZ RAIN  31  29  91 NW3       30.06R
WARRENSBURG    MIX PCPN  30  30 100 NW8       30.11R WCI  23
OSAGE BEACH    LGT RAIN  38  37  97 NW7       30.05R

$$
MOZ051-052-059>065-202200-
...EAST CENTRAL MISSOURI...

CITY           SKY/WX    TMP DP  RH WIND       PRES   REMARKS
ST LOUIS INTL  LGT RAIN  58  56  93 N6        29.92F
SPIRIT OF STL  RAIN      53  52  96 NW10G17   29.96R FOG
ST CHARLES     CLOUDY    55  54  96 W10G17    29.95R

$$
MOZ072>076-082>087-097>100-106>115-202200-
...SOUTH CENTRAL AND SOUTHEAST MISSOURI...

CITY           SKY/WX    TMP DP  RH WIND       PRES   REMARKS
CAPE GIRARDEAU PTSUNNY   73  62  68 S26G38    30.00F
FARMINGTON     CLOUDY    70  61  73 S17G26    29.97R
POPLAR BLUFF   FAIR      74  63  68 S18G29    29.99F
WEST PLAINS    CLOUDY    69  59  70 S12G22    29.97S

$$



USA.gov is the U.S. government's official web portal to all federal, state and local government web resources and services.